User: anonymous   Login
Location: Newark
(35.4036°N, 80.4356°W)
Time: 12:11:30
(UTC+00:00)
Language:

Envisat - Orbit

View from above orbital plane
View from above orbital plane
View from above satellite
View from above satellite

Ground track
Ground track

The orbit data is extracted from the following two-line orbital elements,

1 27386U 02009A   20333.01051498  .00000057  00000-0  32151-4 0  9994
2 27386  98.1399 331.4840 0001320  90.9852 327.9571 14.38001496982121
Epoch (UTC): 28 November 2020 00:15:08
Eccentricity: 0.0001320
inclination: 98.1399°
perigee height: 764 km
apogee height: 766 km
right ascension of ascending node: 331.4840°
argument of perigee: 90.9852°
revolutions per day: 14.38001496
mean anomaly at epoch: 327.9571°
orbit number at epoch: 98212

The dashed part of the orbit path shows where the satellite is in the earth's shadow,  

DLR